Location: Castiglione Fibocchi
(43.5333°N, 11.7667°E)
Time: 17:59:25
(UTC+00:00)

Cosmos 1602 Rocket - Pass Details

Date: 15 August 2020
Orbit: 603 x 634 km, 82.5° (Epoch: 18 September)

Event Time Altitude Azimuth Distance (km) Brightness Sun altitude
Rises 01:37:46 0° 351° (N) 2,881 7.6 -24.2°
Reaches altitude 10° 01:40:00 10° 351° (N) 1,968 6.7 -23.9°
Maximum altitude 01:44:22 86° 261° (W) 612 3.4 -23.4°
Enters shadow 01:44:25 86° 230° (SW) 613 3.3 -23.4°
